Surface/Precipitation History
02/20/2018 04:33  to  2/21/2018 04:33
Change End Date:
Date/Time
(MST)
Sf
Temp Chem Water Layer Surface Precipitation
Sfc Pvt Sub Frz Factor Pct Dpth DpthThk IcePct Cond Salin FI Type Intens Accum Rate
02/21/2018 04:31 Ice Warning 7.7F - 22F 32F 95 0% - - 100% 1 mhos 117 - Yes - - -
02/21/2018 04:30 Ice Warning 7.7F - 22F 32F 95 0% - - 100% 1 mhos 117 - Yes - - -
02/21/2018 04:20 Ice Warning 7.5F - 22F 32F 95 0% - - 100% 1 mhos 115 - Yes - - -
02/21/2018 04:16 Ice Warning 7.3F - 22F 32F 95 0% - - 100% 1 mhos 114 - Yes - - -
02/21/2018 04:10 Ice Warning 7.3F - 22F 32F 95 0% - - 100% 1 mhos 113 - None None - -
02/21/2018 04:01 Ice Warning 7.3F - 22F 32F 95 0% - - 100% 1 mhos 109 - Yes - - -
02/21/2018 04:00 Ice Warning 7.3F - 22F 32F 95 0% - - 100% 1 mhos 109 - None None - -
02/21/2018 03:50 Ice Warning 6.8F - 22F 32F 95 0% - - 100% 1 mhos 107 - None None - -
02/21/2018 03:46 Ice Warning 7.2F - 22F 32F 95 0% - - 100% 1 mhos 105 - Yes - - -
02/21/2018 03:40 Ice Warning 7.2F - 22F 32F 95 0% - - 100% 1 mhos 105 - Yes - - -
02/21/2018 03:31 Ice Warning 7.2F - 22F 32F 95 0% - - 100% 1 mhos 102 - Yes - - -
02/21/2018 03:30 Ice Warning 7.2F - 22F 32F 95 0% - - 100% 1 mhos 103 - Yes - - -
02/21/2018 03:20 Ice Warning 7.2F - 22F 32F 95 0% - - 100% 1 mhos 99 - None None - -
02/21/2018 03:16 Ice Warning 7.2F - 22F 32F 95 0% - - 100% 1 mhos 98 - None None - -
02/21/2018 03:10 Ice Warning 7.0F - 22F 32F 95 0% - - 100% 1 mhos 96 - Yes - - -
Date/Time
(MST)
Sf
Temp Chem Water Layer Surface Precipitation
Sfc Pvt Sub Frz Factor Pct Dpth DpthThk IcePct Cond Salin FI Type Intens Accum Rate
02/21/2018 03:01 Ice Warning 7.0F - 22F 32F 95 0% - - 100% 1 mhos 92 - None None - -
02/21/2018 03:00 Ice Warning 7.0F - 22F 32F 95 0% - - 100% 1 mhos 91 - None None - -
02/21/2018 02:50 Ice Warning 6.8F - 22F 32F 95 0% - - 100% 1 mhos 86 - Yes - - -
02/21/2018 02:46 Ice Warning 6.8F - 22F 32F 95 0% - - 100% 1 mhos 84 - Yes - - -
02/21/2018 02:40 Ice Warning 6.6F - 22F 32F 95 0% - - 100% 1 mhos 79 - Yes - - -
02/21/2018 02:31 Ice Warning 6.4F - 22F 32F 95 0% - - 100% 0 mhos 75 - None None - -
02/21/2018 02:30 Ice Warning 6.4F - 22F 32F 95 0% - - 100% 0 mhos 74 - None None - -
02/21/2018 02:20 Ice Warning 6.1F - 22F 32F 85 0% - - 100% 0 mhos 72 - Yes - - -
02/21/2018 02:16 Ice Warning 5.9F - 22F 32F 80 0% - - 100% 0 mhos 70 - Yes - - -
02/21/2018 02:10 Ice Warning 5.7F - 22F 32F 80 0% - - 100% 0 mhos 69 - Yes - - -
02/21/2018 02:01 Ice Warning 5.9F - 22F 32F 75 0% - - 100% 0 mhos 66 - Yes - - -
02/21/2018 02:00 Ice Warning 5.9F - 22F 32F 75 0% - - 100% 0 mhos 67 - Yes - - -
02/21/2018 01:50 Ice Warning 6.4F - 22F 32F 65 0% - - 100% 0 mhos 64 - Yes - - -
02/21/2018 01:46 Ice Warning 6.4F - 22F 32F 65 0% - - 100% 0 mhos 64 - Yes - - -
02/21/2018 01:40 Ice Warning 6.6F - 22F 32F 65 0% - - 100% 0 mhos 62 - Yes - - -
Date/Time
(MST)
Sf
Temp Chem Water Layer Surface Precipitation
Sfc Pvt Sub Frz Factor Pct Dpth DpthThk IcePct Cond Salin FI Type Intens Accum Rate
02/21/2018 01:31 Ice Warning 7.2F - 22F 32F 65 0% - - 100% 0 mhos 60 - Yes - - -
02/21/2018 01:30 Ice Warning 7.2F - 22F 32F 65 0% - - 100% 0 mhos 60 - Yes - - -
02/21/2018 01:20 Ice Warning 7.3F - 22F 32F 50 0% - - 100% 0 mhos 57 - None None - -
02/21/2018 01:16 Ice Warning 7.3F - 22F 32F 50 0% - - 100% 0 mhos 56 - None None - -
02/21/2018 01:10 Ice Warning 7.5F - 22F 32F 40 0% - - 100% 0 mhos 53 - None None - -
02/21/2018 01:01 Ice Warning 8.1F - 22F 32F 5 0% - - 100% 0 mhos 50 - Yes - - -
02/21/2018 01:00 Ice Warning 8.1F - 22F 32F 5 0% - - 100% 0 mhos 50 - Yes - - -
02/21/2018 00:50 Ice Warning 8.8F - 22F 32F 5 0% - - 100% 0 mhos 48 - Yes - - -
02/21/2018 00:46 Ice Warning 9.1F - 22F 32F 5 0% - - 100% 0 mhos 48 - Yes - - -
02/21/2018 00:40 Ice Warning 9.3F - 22F 32F 5 0% - - 100% 0 mhos 48 - Yes - - -
02/21/2018 00:31 Ice Warning 9.3F - 22F 32F 5 0% - - 100% 0 mhos 47 - None None - -
02/21/2018 00:29 Ice Warning 9.1F - 22F 32F 5 0% - - 100% 0 mhos 48 - Yes - - -
02/21/2018 00:19 Ice Warning 9.1F - 22F 32F 5 0% - - 100% 0 mhos 48 - None None - -
02/21/2018 00:16 Ice Warning 9.1F - 22F 32F 5 0% - - 100% 0 mhos 48 - None None - -
02/21/2018 00:09 Ice Warning 9.0F - 22F 32F 5 0% - - 100% 0 mhos 48 - None None - -
Date/Time
(MST)
Sf
Temp Chem Water Layer Surface Precipitation
Sfc Pvt Sub Frz Factor Pct Dpth DpthThk IcePct Cond Salin FI Type Intens Accum Rate
02/21/2018 00:01 Ice Warning 8.8F - 22F 32F 5 0% - - 100% 0 mhos 49 - None None - -
02/20/2018 23:59 Ice Warning 8.8F - 22F 32F 5 0% - - 100% 0 mhos 49 - None None - -
02/20/2018 23:49 Ice Warning 9.0F - 22F 32F 5 0% - - 100% 0 mhos 50 - None None - -
02/20/2018 23:46 Ice Warning 9.1F - 22F 32F 5 0% - - 100% 0 mhos 50 - None None - -
02/20/2018 23:39 Ice Warning 9.3F - 23F 32F 5 0% - - 100% 0 mhos 51 - None None - -
02/20/2018 23:31 Ice Warning 10.0F - 23F 32F 5 0% - - 100% 0 mhos 52 - None None - -
02/20/2018 23:29 Ice Warning 10.2F - 23F 32F 5 0% - - 100% 0 mhos 52 - None None - -
02/20/2018 23:19 Ice Warning 10.4F - 23F 32F 5 0% - - 100% 0 mhos 54 - None None - -
02/20/2018 23:16 Ice Warning 10.6F - 23F 32F 5 0% - - 100% 0 mhos 54 - None None - -
02/20/2018 23:09 Ice Warning 10.6F - 23F 32F 5 0% - - 100% 0 mhos 55 - None None - -
02/20/2018 23:01 Ice Warning 10.2F - 23F 32F 5 0% - - 100% 0 mhos 55 - None None - -
02/20/2018 22:59 Ice Warning 10.4F - 23F 32F 5 0% - - 100% 0 mhos 55 - None None - -
02/20/2018 22:49 Ice Warning 10.2F - 23F 32F 5 0% - - 100% 0 mhos 56 - None None - -
02/20/2018 22:46 Ice Warning 10.2F - 23F 32F 5 0% - - 100% 0 mhos 57 - None None - -
02/20/2018 22:39 Ice Warning 10.0F - 23F 32F 5 0% - - 100% 0 mhos 57 - None None - -
Date/Time
(MST)
Sf
Temp Chem Water Layer Surface Precipitation
Sfc Pvt Sub Frz Factor Pct Dpth DpthThk IcePct Cond Salin FI Type Intens Accum Rate
02/20/2018 22:31 Ice Warning 10.0F - 23F 32F 5 0% - - 100% 0 mhos 58 - None None - -
02/20/2018 22:29 Ice Warning 10.0F - 23F 32F 5 0% - - 100% 0 mhos 58 - None None - -
02/20/2018 22:19 Ice Warning 10.0F - 23F 32F 5 0% - - 100% 0 mhos 59 - None None - -
02/20/2018 22:16 Ice Warning 9.9F - 23F 32F 5 0% - - 100% 0 mhos 60 - None None - -
02/20/2018 22:09 Ice Warning 9.9F - 23F 32F 5 0% - - 100% 0 mhos 61 - None None - -
02/20/2018 22:01 Ice Warning 9.9F - 23F 32F 5 0% - - 100% 0 mhos 61 - None None - -
02/20/2018 21:59 Ice Warning 9.7F - 23F 32F 5 0% - - 100% 0 mhos 62 - None None - -
02/20/2018 21:49 Ice Warning 9.9F - 23F 32F 5 0% - - 100% 0 mhos 63 - None None - -
02/20/2018 21:46 Ice Warning 9.9F - 23F 32F 5 0% - - 100% 0 mhos 64 - None None - -
02/20/2018 21:39 Ice Warning 10.0F - 23F 32F 5 0% - - 100% 0 mhos 65 - None None - -
02/20/2018 21:31 Ice Warning 10.2F - 23F 32F 5 0% - - 100% 0 mhos 67 - None None - -
02/20/2018 21:29 Ice Warning 10.2F - 23F 32F 5 0% - - 100% 0 mhos 67 - None None - -
02/20/2018 21:19 Ice Warning 10.4F - 23F 32F 5 0% - - 100% 0 mhos 70 - None None - -
02/20/2018 21:16 Ice Warning 10.4F - 23F 32F 5 0% - - 100% 0 mhos 71 - None None - -
02/20/2018 21:09 Ice Warning 10.6F - 23F 32F 5 0% - - 100% 0 mhos 72 - None None - -
Date/Time
(MST)
Sf
Temp Chem Water Layer Surface Precipitation
Sfc Pvt Sub Frz Factor Pct Dpth DpthThk IcePct Cond Salin FI Type Intens Accum Rate
02/20/2018 21:01 Ice Warning 11.1F - 23F 32F 5 0% - - 100% 1 mhos 75 - None None - -
02/20/2018 20:59 Ice Warning 11.1F - 23F 32F 5 0% - - 100% 1 mhos 75 - None None - -
02/20/2018 20:49 Ice Warning 11.3F - 23F 32F 5 0% - - 100% 1 mhos 77 - None None - -
02/20/2018 20:46 Ice Warning 11.3F - 23F 32F 5 0% - - 100% 1 mhos 78 - None None - -
02/20/2018 20:39 Ice Warning 11.3F - 23F 32F 5 0% - - 100% 1 mhos 79 - None None - -
02/20/2018 20:31 Ice Warning 11.3F - 23F 32F 5 0% - - 100% 1 mhos 80 - None None - -
02/20/2018 20:29 Ice Warning 11.3F - 23F 32F 5 0% - - 100% 1 mhos 81 - None None - -
02/20/2018 20:19 Ice Warning 11.5F - 23F 32F 5 0% - - 100% 1 mhos 83 - None None - -
02/20/2018 20:16 Ice Warning 11.5F - 23F 32F 5 0% - - 100% 1 mhos 83 - None None - -
02/20/2018 20:09 Ice Warning 11.7F - 23F 32F 5 0% - - 100% 1 mhos 85 - None None - -
02/20/2018 20:01 Ice Warning 12.0F - 23F 32F 5 0% - - 100% 1 mhos 87 - None None - -
02/20/2018 19:59 Ice Warning 12.0F - 23F 32F 5 0% - - 100% 1 mhos 88 - None None - -
02/20/2018 19:49 Ice Warning 12.2F - 23F 32F 5 0% - - 100% 1 mhos 89 - None None - -
02/20/2018 19:46 Ice Warning 12.4F - 23F 32F 5 0% - - 100% 1 mhos 89 - None None - -
02/20/2018 19:39 Ice Warning 12.6F - 22F 32F 5 0% - - 100% 1 mhos 91 - None None - -
Date/Time
(MST)
Sf
Temp Chem Water Layer Surface Precipitation
Sfc Pvt Sub Frz Factor Pct Dpth DpthThk IcePct Cond Salin FI Type Intens Accum Rate
02/20/2018 19:31 Ice Warning 12.4F - 22F 32F 5 0% - - 100% 1 mhos 92 - None None - -
02/20/2018 19:28 Ice Warning 12.2F - 22F 32F 5 0% - - 100% 1 mhos 94 - None None - -
02/20/2018 19:18 Ice Warning 12.2F - 22F 32F 5 0% - - 100% 1 mhos 97 - None None - -
02/20/2018 19:16 Ice Warning 12.2F - 22F 32F 5 0% - - 100% 1 mhos 97 - None None - -
02/20/2018 19:08 Ice Warning 12.2F - 22F 32F 5 0% - - 100% 1 mhos 102 - None None - -
02/20/2018 19:01 Ice Warning 12.7F - 22F 32F 5 0% - - 99% 1 mhos 105 - None None - -
02/20/2018 18:58 Ice Warning 13.1F - 22F 32F 5 0% - - 99% 1 mhos 107 - None None - -
02/20/2018 18:48 Ice Warning 13.5F - 22F 32F 5 0% - - 99% 1 mhos 114 - None None - -
02/20/2018 18:46 Ice Warning 13.8F - 22F 32F 5 0% - - 99% 1 mhos 116 - None None - -
02/20/2018 18:38 Ice Warning 14.2F - 22F 32F 5 0% - - 99% 1 mhos 122 - None None - -
02/20/2018 18:31 Ice Warning 14.4F - 22F 32F 5 1% - - 99% 1 mhos 131 - None None - -
02/20/2018 18:28 Ice Warning 14.9F - 22F 32F 5 1% - - 99% 1 mhos 133 - None None - -
02/20/2018 18:18 Ice Warning 16.0F - 22F 32F 5 1% - - 99% 1 mhos 186 - None None - -
02/20/2018 18:16 Ice Warning 15.8F - 22F 32F 5 1% - - 99% 1 mhos 187 - None None - -
02/20/2018 18:08 Ice Warning 16.5F - 22F 32F 5 1% - - 99% 1 mhos 177 - None None - -
Date/Time
(MST)
Sf
Temp Chem Water Layer Surface Precipitation
Sfc Pvt Sub Frz Factor Pct Dpth DpthThk IcePct Cond Salin FI Type Intens Accum Rate
02/20/2018 18:01 Ice Warning 17.4F - 22F 32F 5 1% - - 99% 1 mhos 187 - None None - -
02/20/2018 17:58 Ice Warning 18.0F - 22F 32F 5 1% - - 99% 2 mhos 213 - None None - -
02/20/2018 17:48 Ice Warning 19.2F - 22F 32F 5 1% - - 98% 2 mhos 250 - None None - -
02/20/2018 17:46 Ice Warning 19.4F - 22F 32F 5 1% - - 98% 2 mhos 255 - None None - -
02/20/2018 17:38 Ice Warning 20.3F - 22F 32F 5 1% - - 98% 2 mhos 274 - None None - -
02/20/2018 17:31 Ice Warning 21.2F - 22F 32F 5 1% - - 97% 2 mhos 294 - None None - -
02/20/2018 17:28 Ice Warning 21.6F - 22F 32F 5 1% - - 97% 2 mhos 302 - None None - -
02/20/2018 17:18 Ice Warning 22.5F - 22F 32F 5 1% - - 96% 3 mhos 352 - None None - -
02/20/2018 17:16 Ice Warning 22.5F - 22F 32F 5 1% - - 96% 3 mhos 352 - None None - -
02/20/2018 17:08 Ice Warning 23.0F - 22F 32F 5 2% - - 96% 3 mhos 396 - None None - -
02/20/2018 17:01 Ice Warning 23.5F - 21F 32F 5 2% - - 95% 3 mhos 407 - None None - -
02/20/2018 16:58 Ice Warning 23.5F - 21F 32F 5 2% - - 95% 3 mhos 414 - None None - -
02/20/2018 16:48 Ice Warning 23.5F - 21F 31F 5 2% - - 95% 4 mhos 432 - None None - -
02/20/2018 16:46 Ice Warning 24.1F - 21F 31F 5 2% - - 95% 4 mhos 442 - None None - -
02/20/2018 16:38 Ice Warning 24.6F - 21F 31F 5 2% - - 94% 4 mhos 453 - None None - -
Date/Time
(MST)
Sf
Temp Chem Water Layer Surface Precipitation
Sfc Pvt Sub Frz Factor Pct Dpth DpthThk IcePct Cond Salin FI Type Intens Accum Rate
02/20/2018 16:31 Ice Warning 24.6F - 21F 31F 5 2% - - 94% 4 mhos 473 - None None - -
02/20/2018 16:28 Ice Warning 25.0F - 21F 31F 5 2% - - 93% 4 mhos 486 - None None - -
02/20/2018 16:18 Ice Warning 26.8F - 21F 31F 5 2% - - 89% 5 mhos 578 - None None - -
02/20/2018 16:16 Ice Warning 26.6F - 21F 31F 5 2% - - 89% 5 mhos 602 - None None - -
02/20/2018 16:08 Chemically Wet 27.5F - 21F 31F 5 3% - - 83% 7 mhos 781 - None None - -
02/20/2018 16:01 Chemically Wet 29.5F - 21F 31F 5 4% - - 61% 8 mhos 947 - None None - -
02/20/2018 15:58 Chemically Wet 28.4F - 21F 31F 5 4% - - 74% 8 mhos 941 - None None - -
02/20/2018 15:48 Chemically Wet 29.7F - 21F 31F 5 5% - - 44% 11 mhos 1281 - None None - -
02/20/2018 15:46 Chemically Wet 29.8F - 21F 31F 5 5% - - 39% 12 mhos 1313 - None None - -
02/20/2018 15:38 Chemically Wet 30.9F - 21F 31F 5 5% 0.00 in - 0% 13 mhos 1405 - None None - -
02/20/2018 15:31 Wet 32.9F - 21F 30F 5 6% 0.00 in - 0% 14 mhos 1518 - None None - -
02/20/2018 15:28 Wet 33.8F - 21F 30F 5 6% 0.00 in - 0% 15 mhos 1561 - None None - -
02/20/2018 15:18 Wet 33.3F - 21F 30F 5 7% 0.00 in - 0% 16 mhos 1708 - None None - -
02/20/2018 15:16 Wet 34.2F - 21F 30F 5 7% 0.00 in - 0% 16 mhos 1722 - None None - -
02/20/2018 15:08 Wet 34.3F - 20F 30F 5 7% 0.00 in - 0% 17 mhos 1828 - None None - -
Date/Time
(MST)
Sf
Temp Chem Water Layer Surface Precipitation
Sfc Pvt Sub Frz Factor Pct Dpth DpthThk IcePct Cond Salin FI Type Intens Accum Rate
02/20/2018 15:01 Wet 34.0F - 20F 30F 75 7% 0.00 in - 0% 17 mhos 1845 - None None - -
02/20/2018 14:58 Wet 33.6F - 20F 30F 95 7% 0.00 in - 0% 17 mhos 1872 - None None - -
02/20/2018 14:47 Wet 33.8F - 20F 30F 5 8% 0.00 in - 0% 18 mhos 1983 - None None - -
02/20/2018 14:46 Wet 33.6F - 20F 30F 5 8% 0.00 in - 0% 19 mhos 2005 - None None - -
02/20/2018 14:37 Wet 34.2F - 20F 30F 5 8% 0.00 in - 0% 19 mhos 2077 - None None - -
02/20/2018 14:31 Wet 34.3F - 20F 30F 5 8% 0.00 in - 0% 20 mhos 2143 - None None - -
02/20/2018 14:27 Wet 34.9F - 20F 30F 5 8% 0.00 in - 0% 20 mhos 2143 - None None - -
02/20/2018 14:17 Wet 33.6F - 20F 30F 5 8% 0.00 in - 0% 20 mhos 2121 - None None - -
02/20/2018 14:16 Wet 32.7F - 20F 30F 50 8% 0.00 in - 0% 19 mhos 2112 - None None - -
02/20/2018 14:07 Chemically Wet 32.0F - 20F 30F 95 7% 0.00 in - 0% 17 mhos 1904 - None None - -
02/20/2018 14:01 Chemically Wet 31.5F - 20F 30F 95 6% 0.00 in - 0% 15 mhos 1676 - None None - -
02/20/2018 13:57 Chemically Wet 31.5F - 20F 30F 95 6% 0.00 in - 0% 14 mhos 1598 - None None - -
02/20/2018 13:47 Chemically Wet 29.3F - 20F 31F 95 5% - - 54% 11 mhos 1200 - None None - -
02/20/2018 13:46 Chemically Wet 28.8F - 20F 31F 95 4% - - 64% 10 mhos 1158 - None None - -
02/20/2018 13:37 Chemically Wet 28.4F - 20F 31F 95 3% - - 76% 8 mhos 862 - None None - -
Date/Time
(MST)
Sf
Temp Chem Water Layer Surface Precipitation
Sfc Pvt Sub Frz Factor Pct Dpth DpthThk IcePct Cond Salin FI Type Intens Accum Rate
02/20/2018 13:31 Ice Warning 27.0F - 20F 31F 95 2% - - 90% 5 mhos 534 - None None - -
02/20/2018 13:27 Ice Warning 25.2F - 20F 32F 95 1% - - 97% 2 mhos 229 - None None - -
02/20/2018 13:17 Ice Warning 24.6F - 20F 32F 95 0% - - 98% 1 mhos 116 - None None - -
02/20/2018 13:16 Ice Warning 24.6F - 20F 32F 95 0% - - 98% 1 mhos 125 - None None - -
02/20/2018 13:07 Ice Warning 24.3F - 20F 32F 45 1% - - 98% 1 mhos 141 - None None - -
02/20/2018 13:01 Ice Warning 23.2F - 20F 32F 80 1% - - 99% 1 mhos 138 - None None - -
02/20/2018 12:57 Ice Warning 23.2F - 20F 32F 95 1% - - 98% 1 mhos 140 - None None - -
02/20/2018 12:47 Ice Warning 23.9F - 20F 32F 80 1% - - 98% 1 mhos 150 - None None - -
02/20/2018 12:46 Ice Warning 24.3F - 20F 32F 90 1% - - 98% 1 mhos 155 - None None - -
02/20/2018 12:37 Ice Warning 26.6F - 20F 32F 75 1% - - 97% 1 mhos 139 - None None - -
02/20/2018 12:31 Ice Warning 24.6F - 20F 32F 50 1% - - 98% 1 mhos 135 - None None - -
02/20/2018 12:27 Ice Warning 23.9F - 20F 32F 45 1% - - 98% 1 mhos 139 - None None - -
02/20/2018 12:17 Ice Warning 24.6F - 20F 32F 40 1% - - 98% 1 mhos 138 - None None - -
02/20/2018 12:16 Ice Warning 24.6F - 20F 32F 40 1% - - 98% 1 mhos 136 - None None - -
02/20/2018 12:07 Ice Warning 23.9F - 20F 32F 45 1% - - 98% 1 mhos 147 - None None - -
Date/Time
(MST)
Sf
Temp Chem Water Layer Surface Precipitation
Sfc Pvt Sub Frz Factor Pct Dpth DpthThk IcePct Cond Salin FI Type Intens Accum Rate
02/20/2018 12:01 Ice Warning 23.5F - 20F 32F 50 1% - - 98% 1 mhos 149 - None None - -
02/20/2018 11:57 Ice Warning 22.8F - 20F 32F 60 1% - - 98% 1 mhos 146 - None None - -
02/20/2018 11:47 Ice Warning 21.6F - 20F 32F 65 1% - - 99% 1 mhos 144 - None None - -
02/20/2018 11:46 Ice Warning 21.4F - 20F 32F 65 1% - - 99% 1 mhos 142 - None None - -
02/20/2018 11:37 Ice Warning 20.3F - 20F 32F 70 1% - - 99% 1 mhos 144 - None None - -
02/20/2018 11:31 Ice Warning 19.9F - 20F 32F 70 1% - - 99% 1 mhos 141 - None None - -
02/20/2018 11:27 Ice Warning 19.8F - 20F 32F 70 1% - - 99% 1 mhos 139 - None None - -
02/20/2018 11:17 Ice Warning 18.5F - 20F 32F 70 1% - - 99% 1 mhos 137 - None None - -
02/20/2018 11:16 Ice Warning 18.5F - 20F 32F 75 1% - - 99% 1 mhos 137 - None None - -
02/20/2018 11:07 Ice Warning 17.2F - 20F 32F 60 1% - - 99% 1 mhos 135 - None None - -
02/20/2018 11:01 Ice Warning 16.3F - 20F 32F 60 1% - - 99% 1 mhos 134 - None None - -
02/20/2018 10:57 Ice Warning 16.0F - 20F 32F 60 1% - - 99% 1 mhos 135 - None None - -
02/20/2018 10:47 Ice Warning 14.7F - 20F 32F 55 1% - - 99% 1 mhos 132 - None None - -
02/20/2018 10:46 Ice Warning 14.4F - 20F 32F 55 1% - - 99% 1 mhos 132 - None None - -
02/20/2018 10:37 Ice Warning 13.3F - 20F 32F 55 0% - - 99% 1 mhos 129 - None None - -
Date/Time
(MST)
Sf
Temp Chem Water Layer Surface Precipitation
Sfc Pvt Sub Frz Factor Pct Dpth DpthThk IcePct Cond Salin FI Type Intens Accum Rate
02/20/2018 10:31 Ice Warning 12.4F - 20F 32F 55 0% - - 99% 1 mhos 126 - None None - -
02/20/2018 10:27 Ice Warning 11.5F - 20F 32F 55 0% - - 99% 1 mhos 125 - None None - -
02/20/2018 10:17 Ice Warning 10.0F - 20F 32F 60 0% - - 99% 1 mhos 125 - None None - -
02/20/2018 10:16 Ice Warning 9.5F - 20F 32F 55 0% - - 99% 1 mhos 125 - None None - -
02/20/2018 10:07 Ice Warning 7.9F - 21F 32F 60 0% - - 100% 1 mhos 124 - None None - -
02/20/2018 10:01 Ice Warning 6.4F - 21F 32F 65 0% - - 100% 1 mhos 122 - None None - -
02/20/2018 09:57 Ice Warning 5.4F - 21F 32F 70 0% - - 100% 1 mhos 119 - None None - -
02/20/2018 09:47 Ice Warning 2.1F - 21F 32F 70 0% - - 100% 1 mhos 117 - None None - -
02/20/2018 09:46 Ice Warning 1.6F - 21F 32F 70 0% - - 100% 1 mhos 116 - None None - -
02/20/2018 09:37 Ice Warning 0.3F - 21F 32F 65 0% - - 100% 1 mhos 115 - None None - -
02/20/2018 09:31 Ice Warning 0.5F - 21F 32F 70 0% - - 100% 1 mhos 113 - None None - -
02/20/2018 09:26 Ice Warning -1.1F - 21F 32F 65 0% - - 100% 1 mhos 108 - None None - -
02/20/2018 09:16 Ice Warning -1.7F - 21F 32F 65 0% - - 100% 1 mhos 107 - None None - -
02/20/2018 09:16 Ice Warning -1.8F - 21F 32F 65 0% - - 100% 1 mhos 107 - None None - -
02/20/2018 09:06 Ice Warning -2.2F - 21F 32F 65 0% - - 100% 1 mhos 104 - None None - -
Date/Time
(MST)
Sf
Temp Chem Water Layer Surface Precipitation
Sfc Pvt Sub Frz Factor Pct Dpth DpthThk IcePct Cond Salin FI Type Intens Accum Rate
02/20/2018 09:01 Ice Warning -3.6F - 21F 32F 60 0% - - 100% 1 mhos 99 - None None - -
02/20/2018 08:56 Ice Warning -3.8F - 21F 32F 60 0% - - 100% 1 mhos 100 - None None - -
02/20/2018 08:46 Ice Warning -4.2F - 21F 32F 60 0% - - 100% 1 mhos 99 - None None - -
02/20/2018 08:46 Ice Warning -4.2F - 21F 32F 60 0% - - 100% 1 mhos 99 - None None - -
02/20/2018 08:36 Ice Warning -4.2F - 21F 32F 60 0% - - 100% 1 mhos 96 - None None - -
02/20/2018 08:31 Ice Warning -4.4F - 21F 32F 60 0% - - 100% 1 mhos 95 - None None - -
02/20/2018 08:26 Ice Warning -4.2F - 21F 32F 60 0% - - 100% 1 mhos 94 - None None - -
02/20/2018 08:16 Ice Warning -4.2F - 21F 32F 60 0% - - 100% 1 mhos 94 - None None - -
02/20/2018 08:16 Ice Warning -4.4F - 21F 32F 60 0% - - 100% 1 mhos 94 - None None - -
02/20/2018 08:06 Ice Warning -4.4F - 21F 32F 60 0% - - 100% 1 mhos 94 - None None - -
02/20/2018 08:01 Ice Warning -4.4F - 22F 32F 65 0% - - 100% 1 mhos 93 - None None - -
02/20/2018 07:56 Ice Warning -4.5F - 22F 32F 60 0% - - 100% 1 mhos 94 - None None - -
02/20/2018 07:46 Ice Warning -4.4F - 22F 32F 65 0% - - 100% 1 mhos 97 - None None - -
02/20/2018 07:46 Ice Warning -4.4F - 22F 32F 65 0% - - 100% 1 mhos 97 - None None - -
02/20/2018 07:36 Ice Warning -4.4F - 22F 32F 65 0% - - 100% 1 mhos 98 - None None - -
Date/Time
(MST)
Sf
Temp Chem Water Layer Surface Precipitation
Sfc Pvt Sub Frz Factor Pct Dpth DpthThk IcePct Cond Salin FI Type Intens Accum Rate
02/20/2018 07:31 Ice Warning -4.2F - 22F 32F 60 0% - - 100% 1 mhos 100 - None None - -
02/20/2018 07:26 Ice Warning -4.2F - 22F 32F 65 0% - - 100% 1 mhos 103 - None None - -
02/20/2018 07:16 Ice Warning -4.2F - 22F 32F 65 0% - - 100% 1 mhos 103 - None None - -
02/20/2018 07:16 Ice Warning -4.0F - 22F 32F 65 0% - - 100% 1 mhos 103 - None None - -
02/20/2018 07:06 Ice Warning -3.6F - 22F 32F 70 0% - - 100% 1 mhos 104 - None None - -
02/20/2018 07:01 Ice Warning -3.5F - 22F 32F 70 0% - - 100% 1 mhos 104 - None None - -
02/20/2018 06:56 Ice Warning -3.5F - 22F 32F 70 0% - - 100% 1 mhos 102 - None None - -
02/20/2018 06:46 Ice Warning -3.3F - 22F 32F 70 0% - - 100% 1 mhos 101 - None None - -
02/20/2018 06:46 Ice Warning -3.3F - 22F 32F 70 0% - - 100% 1 mhos 101 - None None - -
02/20/2018 06:36 Ice Warning -3.1F - 22F 32F 70 0% - - 100% 1 mhos 102 - None None - -
02/20/2018 06:31 Ice Warning -3.1F - 22F 32F 70 0% - - 100% 1 mhos 101 - None None - -
02/20/2018 06:26 Ice Warning -2.9F - 22F 32F 70 0% - - 100% 1 mhos 102 - None None - -
02/20/2018 06:16 Ice Warning -2.7F - 22F 32F 70 0% - - 100% 1 mhos 101 - None None - -
02/20/2018 06:16 Ice Warning -2.7F - 22F 32F 75 0% - - 100% 1 mhos 102 - None None - -
02/20/2018 06:06 Ice Warning -2.6F - 22F 32F 75 0% - - 100% 1 mhos 104 - None None - -
Date/Time
(MST)
Sf
Temp Chem Water Layer Surface Precipitation
Sfc Pvt Sub Frz Factor Pct Dpth DpthThk IcePct Cond Salin FI Type Intens Accum Rate
02/20/2018 06:01 Ice Warning -2.2F - 22F 32F 75 0% - - 100% 1 mhos 110 - None None - -
02/20/2018 05:56 Ice Warning -2.2F - 22F 32F 75 0% - - 100% 1 mhos 112 - None None - -
02/20/2018 05:46 Ice Warning -2.0F - 22F 32F 70 0% - - 100% 1 mhos 116 - None None - -
02/20/2018 05:46 Ice Warning -1.8F - 22F 32F 80 0% - - 100% 1 mhos 119 - None None - -
02/20/2018 05:36 Ice Warning -1.7F - 22F 32F 80 0% - - 100% 1 mhos 118 - None None - -
02/20/2018 05:31 Ice Warning -1.7F - 22F 32F 80 0% - - 100% 1 mhos 120 - None None - -
02/20/2018 05:26 Ice Warning -1.3F - 22F 32F 80 0% - - 100% 1 mhos 118 - None None - -
02/20/2018 05:16 Ice Warning -1.1F - 23F 32F 80 0% - - 100% 1 mhos 121 - None None - -
02/20/2018 05:16 Ice Warning -1.1F - 23F 32F 80 0% - - 100% 1 mhos 121 - None None - -
02/20/2018 05:06 Ice Warning -0.9F - 23F 32F 80 0% - - 100% 1 mhos 122 - None None - -
02/20/2018 05:01 Ice Warning -0.8F - 23F 32F 80 0% - - 100% 1 mhos 120 - None None - -
02/20/2018 04:56 Ice Warning -0.8F - 23F 32F 85 0% - - 100% 1 mhos 120 - None None - -
02/20/2018 04:46 Ice Warning -0.4F - 23F 32F 80 0% - - 100% 1 mhos 122 - None None - -
02/20/2018 04:46 Ice Warning -0.4F - 23F 32F 80 0% - - 100% 1 mhos 122 - None None - -
02/20/2018 04:36 Ice Warning -0.2F - 23F 32F 85 0% - - 100% 1 mhos 121 - None None - -
Change End Date:

Copyright © 1998-2015 Vaisala, Inc.
All Rights Reserved
Send comments about the data to:
SCAN Web ® is a registered trademark of Vaisala, Inc.
SCAN Web Version 6.0